Volver al catálogo

DELTA 1 DEB

ActivoSSO
NORAD 21551·DEBRIS·🇺🇸 United States

Lanzado Jun 12, 1975 desde Vandenberg Space Force Base

Loading…

Próximos Pases (próximas 24 horas)

TLE

ActualizadoSource: Space-Track

Época: Sep 14, 2026, 04:26 UTC

1 21551U 75052HF  26257.18513755  .00000064  00000-0  23487-3 0  9997
2 21551  99.7688 146.4156 0106551 101.1555  51.0342 13.24645127706403

Sigue DELTA 1 DEB en tiempo real con AllMySat

Download on the App Store